1314319825955,0.000151282
1314319885955,0.000152780
1314319945955,0.000153051
1314320005955,0.000152219
1314320065955,0.000151023
1314323425965,0.000149893
1314323485965,0.000150065
1314323545965,0.000149649
1314323605965,0.000149848
1314323665965,0.000149789
1314323725965,0.000150243
1314323785965,0.000149243
1314323845965,0.000149598
1314323905965,0.000150193
1314323965965,0.000149625
1314324025975,0.000150410
1314324085975,0.000152602
1314324145975,0.000152435
1314324205975,0.000151728
1314324265975,0.000149859
1314324325975,0.000152678
1314324385975,0.000150532
1314324445975,0.000150855
1314324505975,0.000150739
1314324565975,0.000150753
1314324625975,0.000151129
1314324685975,0.000150625
1314324745975,0.000150574
1314324805975,0.000148545
1314324865975,0.000148066
1314324925975,0.000149049
1314324985975,0.000148292
1314325045975,0.000147563
1314325105975,0.000147601
1314325165975,0.000148269
1314325225975,0.000147499
1314325285975,0.000149326
1314325345975,0.000148872
1314325405975,0.000150787
1314325465975,0.000148205
1314325525975,0.000148984
1314325585975,0.000149714
1314325645975,0.000150062
1314325705975,0.000151551
1314325765975,0.000150664
1314325825975,0.000150981
1314325885975,0.000150460
1314325945975,0.000151141
1314326005975,0.000149546
1314326065975,0.000149962
1314326125975,0.000149498
1314326185975,0.000151599
1314326245975,0.000149066
1314326305975,0.000149553
1314326365975,0.000150296
1314326425975,0.000151354
1314326485975,0.000152029
1314326545975,0.000151098
1314326605975,0.000152181
1314326665975,0.000151620
1314326725975,0.000152405
1314326785975,0.000151871
1314326845975,0.000150897
1314326905975,0.000151416
1314326965975,0.000150963
1314327025975,0.000151808
1314327085975,0.000152948
1314327145975,0.000151875
1314327205975,0.000152319
1314327265975,0.000151245
1314327325975,0.000150886
1314327385975,0.000150258
1314327445975,0.000152979
1314327505975,0.000152915
1314327565975,0.000152738
1314327625984,0.000152271
1314327685984,0.000152756
1314327745984,0.000150511
1314327805984,0.000151649
1314327865984,0.000150474
1314327925984,0.000149283
1314327985984,0.000148829
1314328045984,0.000150256
1314328105984,0.000150233
1314328165984,0.000148711
1314328225984,0.000148642
1314328285984,0.000146863
1314328345984,0.000149540
1314328405984,0.000146847
1314328465984,0.000148443
1314328525984,0.000149072
1314328585984,0.000150275
1314328645984,0.000149312
1314328705984,0.000149245
1314328765984,0.000147784
1314328825984,0.000148159
1314328885984,0.000148896
1314328945984,0.000147895
1314329005984,0.000147536
1314329065984,0.000148487
1314329125984,0.000149516
1314329185984,0.000147832
1314329245984,0.000147525
1314329305984,0.000149056
1314329365984,0.000146985
1314329425984,0.000147341
1314329485984,0.000148836
1314329545984,0.000148609
1314329605984,0.000151288
1314329665984,0.000150076
1314329725984,0.000149737
1314329785984,0.000147730
1314329845984,0.000150318
1314329905984,0.000148318
1314329965984,0.000148017
1314330025984,0.000147034
1314330085984,0.000148096
1314330145984,0.000148351
1314330205984,0.000150436
1314330265984,0.000150319
1314330325984,0.000148952
1314330385984,0.000149735
1314330445984,0.000149198
1314330505984,0.000148642
1314330565984,0.000150946
1314330625984,0.000151016
1314330685984,0.000148963
1314330745984,0.000151082
1314330805984,0.000150415
1314330865984,0.000151798
1314330925984,0.000152877
1314330985984,0.000151628
1314331045984,0.000150245
1314331105984,0.000150456
1314331165984,0.000151627
1314331225994,0.000152782
1314331285994,0.000152477
1314331345994,0.000150597
1314331405994,0.000151217
1314331465993,0.000150843
1314331525993,0.000151283
1314331585993,0.000150207
1314331645993,0.000148705
1314331705993,0.000149839
1314331765993,0.000149404
1314331825993,0.000149654
1314331885993,0.000151079
1314331945993,0.000150249
1314332005993,0.000149030
1314332065993,0.000148291
1314332125993,0.000149859
1314332185993,0.000147459
1314332245993,0.000148093
1314332305993,0.000147596
1314332365993,0.000149081
1314332425993,0.000149551
1314332485994,0.000149770
1314332545994,0.000150918
1314332605994,0.000149662
1314332665994,0.000149074
1314332725994,0.000148085
1314332785993,0.000150690
1314332845993,0.000150687
1314332905993,0.000150293
1314332965993,0.000149506
1314333025993,0.000150031
1314333085993,0.000151198
1314333145993,0.000150384
1314333205993,0.000148973
1314333265993,0.000150555
1314333325993,0.000149577
1314333385993,0.000151554
1314333445993,0.000152496
1314333505993,0.000153016
1314333565993,0.000153365
1314333625993,0.000151058
1314333685993,0.000152222
1314333745993,0.000151090
1314333805993,0.000152632
1314333865994,0.000150136
1314333925994,0.000149925
1314333985994,0.000149159
1314334045994,0.000148805
1314334105994,0.000150336
1314334165993,0.000149427
1314334225993,0.000148892
1314334285993,0.000149719
1314334345993,0.000152801
1314334405993,0.000150536
1314334465993,0.000148998
1314337826003,0.000149572
1314337886003,0.000147038
1314337946003,0.000148109
1314338006003,0.000150226
1314338066003,0.000148979
1314341426012,0.000149911
1314341486012,0.000150923
1314341546012,0.000151354
1314341606012,0.000151347
1314341666012,0.000151304
1314345026022,0.000149205
1314345086022,0.000149253
1314345146022,0.000150569
1314345206022,0.000148764
1314345266022,0.000150676
1314348626032,0.000150356
1314348686032,0.000150475
1314348746032,0.000150719
1314348806032,0.000148416
1314348866032,0.000150193
1314352226041,0.000149938
1314352286041,0.000151433
1314352346041,0.000149177
1314352406041,0.000150589
1314352466041,0.000148708
1314355826051,0.000149323
1314355886051,0.000149606
1314355946051,0.000149696
1314356006051,0.000150467
1314356066051,0.000150923
1314359426061,0.000151270
1314359486061,0.000151412
1314359546061,0.000149977
1314359606061,0.000152272
1314359666061,0.000152046
1314363026072,0.000151992
1314363086072,0.000151008
1314363146072,0.000150932
1314363206072,0.000150794
1314363266072,0.000151324
1314366626082,0.000152788
1314366686082,0.000152590
1314366746082,0.000151919
1314366806082,0.000151987
1314366866082,0.000151666
1314370226092,0.000149697
1314370286092,0.000151667
1314370346092,0.000151721
1314370406092,0.000151959
1314370466092,0.000154890
1314373826103,0.000152232
1314373886103,0.000149800
1314373946103,0.000152154
1314374006103,0.000151262
1314374066103,0.000150712
1314377426114,0.000153226
1314377486114,0.000151699
1314377546114,0.000152458
1314377606114,0.000152098
1314377666114,0.000152113
1314381026125,0.000151113
1314381086125,0.000149136
1314381146125,0.000149069
1314381206125,0.000149290
1314381266125,0.000151370
1314384626136,0.000148939
1314384686136,0.000148193
1314384746136,0.000149835
1314384806136,0.000149446
1314384866136,0.000149907
1314388226148,0.000155415
1314388286148,0.000150393
1314388346147,0.000152203
1314388406147,0.000148703
1314388466147,0.000150505
1314391826159,0.000153043
1314391886159,0.000152387
1314391946159,0.000153645
1314392006159,0.000153022
1314392066159,0.000154333
1314395426170,0.000153035
1314395486170,0.000153258
1314395546170,0.000153476
1314395606170,0.000155997
1314395666170,0.000154470
1314399026180,0.000150554
1314399086180,0.000150259
1314399146180,0.000152096
1314399206180,0.000151253
1314399266180,0.000152319
1314402626191,0.000152638
1314402686191,0.000153971
1314402746191,0.000153030
1314402806191,0.000154197
1314402866191,0.000153603
